THOR ABLESTAR DEB, 235

Orbit data source: Space-Track

THOR ABLESTAR DEB, 235 is space debris in LEO originally from a launch on Thu, 29 Jun 1961 UTC launched from the Air Force Eastern Test Range (AFETR). Debris objects in space refer to the collection of defunct objects orbiting the Earth. Examples of debris include non-operational satellites, rocket bodies, and fragments generated from explosions, collisions, or faulty payload assembly.

Loading next visibility...
Identifier
235, 1961-015BT
Orbit
LEO
Country
Flag of USUS
Related business
Manufacturer
Unknown
Mission
Spacecraft
Bus & Motor
Unknown
Mass
Unknown
Launch date (UTC)
1961-06-29 (65 years ago)
Launch vehicle
Unknown
Launch site
Air Force Eastern Test Range (AFETR)
Object type
Payload
Rocket body
Debris
Shape & HBR
Unknown shape, 0.1 m
Radar Cross Section
Small (<0.1 m²)

Expand to show TLE details & history
Last TLE update: 12 hours ago

TLE from 12 hours ago
0 THOR ABLESTAR DEB
1 00235U 61015BT  26072.33096892  .00000573  00000-0  32160-3 0  9990
2 00235  66.9559 151.5557 0156384  44.7784 316.5805 14.11281835307802
Epoch: 2026-03-13T07:56Z
TLE epoch observation values (Epoch: 2026-03-13T07:56:35.714Z)
Latitude
-0.00002°
Longitude
-138.56116°
Altitude
775.778 km
Speed
7.508 km/s
True Right ascension
10h 06m 13s
True Declination
0° 00' 00"
Sunlit
Object was in full shadow at epoch
Visualization orbit readout
Latitude
Unknown
Longitude
Unknown
Altitude
Unknown
Speed
Unknown
Apparent Right ascension
Unknown
Apparent Declination
Unknown
Sunlit
N/A
Visualization observer readout
Local Sidereal Time
00:15:58
Azimuth
Unknown
Elevation
Unknown
Doppler factor
Unknown
Orbital elements
Apogee altitude
966.437 km
Perigee altitude
740.259 km
Semi-major axis
7,231.485 km
Eccentricity
0.01564
Inclination
66.9559°
RAAN
151.5557°
Arg. of periapsis
44.7784°
True anomaly
315.33115°
Mean anomaly
316.5805°
Eccentric anomaly
315.9576°
Mean motion
3.52941 °/min
Orbital period
102 mins
BSTAR
0.0003216
Loading maneuver chart data...
Computing Atmospheric mass density...

Documentation

Showing up to 5 results
|